Corning, AR

11:41 AM CDT on July 27, 2016 (GMT -0500)
Corning

Weather History for K4M9 - May, 2014

Change the Weather History Date:

Sunday, May 25, 2014

  Actual Average (KARG) Record (KARG)
Temperature  
Mean Temperature 76 °F -  
Max Temperature 86 °F 78 °F 95 °F (2006)
Min Temperature 66 °F 60 °F 46 °F (2001)
Cooling Degree Days 11    
Growing Degree Days 26 (Base 50)    
Moisture  
Dew Point 66 °F    
Average Humidity 76    
Maximum Humidity 100    
Minimum Humidity 45    
Precipitation  
Precipitation 0.03 in - - ()
Sea Level Pressure  
Sea Level Pressure 30.04 in    
Wind  
Wind Speed 6 mph (ESE)    
Max Wind Speed 21 mph    
Max Gust Speed 28 mph    
Visibility 9 miles    
Events Rain , Thunderstorm    
Averages and records for this station are not official NWS values.
T = Trace of Precipitation, MM = Missing Value Source: NWS Daily Summary

Daily Weather History Graph

Daily Weather History Graph

Search for Another Location

Airport or City:

Trip Planner

Search our weather history database for the weather conditions in past years. The results will help you decide how hot, cold, wet, or windy it might be!

Date:

Astronomy

May. 25, 2014 Rise Set
Actual Time 5:49 AM CDT 8:10 PM CDT
Civil Twilight 5:19 AM CDT 8:39 PM CDT
Nautical Twilight 4:43 AM CDT 9:16 PM CDT
Astronomical Twilight 4:03 AM CDT 9:56 PM CDT
Moon 3:48 AM CDT (5/25) 5:15 PM CDT (5/25)
Length of Visible Light 15h 20m
Length of Day
14h 21m
Waning Crescent, 10% of the Moon is Illuminated
May 25
Waning Crescent
May 28
New
Jun 5
First Quarter
Jun 12
Full
Jun 19
Last Quarter

Hourly Weather History & Observations

Time (CDT) Temp. Heat Index Dew Point Humidity Pressure Visibility Wind Dir Wind Speed Gust Speed Precip Events Conditions
12:15 AM 71.6 °F - 62.6 °F 73% 30.05 in 10.0 mi ENE 8.1 mph - N/A   Clear
12:35 AM 71.6 °F - 64.4 °F 78% 30.04 in 10.0 mi East 6.9 mph - N/A   Clear
12:55 AM 71.6 °F - 64.4 °F 78% 30.03 in 10.0 mi East 5.8 mph - N/A   Clear
1:15 AM 71.6 °F - 64.4 °F 78% 30.03 in 10.0 mi NNE 6.9 mph - N/A   Clear
1:35 AM 71.6 °F - 64.4 °F 78% 30.02 in 10.0 mi NNE 5.8 mph - N/A   Clear
1:55 AM 71.6 °F - 64.4 °F 78% 30.02 in 10.0 mi NNE 5.8 mph - N/A   Partly Cloudy
2:15 AM 71.6 °F - 64.4 °F 78% 30.02 in 10.0 mi NE 5.8 mph - N/A   Mostly Cloudy
2:35 AM 69.8 °F - 64.4 °F 83% 30.02 in 10.0 mi NE 6.9 mph - N/A   Mostly Cloudy
2:55 AM 69.8 °F - 64.4 °F 83% 30.02 in 10.0 mi NE 5.8 mph - N/A   Mostly Cloudy
3:15 AM 68.0 °F - 64.4 °F 88% 30.02 in 10.0 mi ENE 6.9 mph - N/A   Scattered Clouds
3:35 AM 68.0 °F - 64.4 °F 88% 30.02 in 10.0 mi ENE 5.8 mph - N/A   Partly Cloudy
3:55 AM 68.0 °F - 64.4 °F 88% 30.03 in 10.0 mi NE 4.6 mph - N/A   Clear
4:15 AM 68.0 °F - 64.4 °F 88% 30.03 in 10.0 mi NE 5.8 mph - N/A   Clear
4:35 AM 68.0 °F - 64.4 °F 88% 30.04 in 10.0 mi ENE 4.6 mph - N/A   Clear
4:55 AM 66.2 °F - 64.4 °F 94% 30.03 in 8.0 mi East 4.6 mph - N/A   Partly Cloudy
5:15 AM 66.2 °F - 64.4 °F 94% 30.04 in 10.0 mi ENE 3.5 mph - N/A   Clear
5:35 AM 68.0 °F - 66.2 °F 94% 30.04 in 10.0 mi NE 4.6 mph - N/A   Clear
5:55 AM 68.0 °F - 66.2 °F 94% 30.05 in 8.0 mi Calm Calm - N/A   Clear
6:15 AM 66.2 °F - 66.2 °F 100% 30.06 in 6.0 mi North 4.6 mph - N/A   Clear
6:35 AM 68.0 °F - 66.2 °F 94% 30.07 in 8.0 mi NE 4.6 mph - N/A   Clear
6:55 AM 68.0 °F - 66.2 °F 94% 30.07 in 8.0 mi NNE 4.6 mph - N/A   Clear
7:15 AM 68.0 °F - 64.4 °F 88% 30.07 in 8.0 mi NNE 4.6 mph - N/A   Clear
7:35 AM 69.8 °F - 66.2 °F 88% 30.07 in 8.0 mi ENE 4.6 mph - N/A   Clear
7:55 AM 71.6 °F - 66.2 °F 83% 30.08 in 9.0 mi ENE 4.6 mph - N/A   Clear
8:15 AM 73.4 °F - 66.2 °F 78% 30.08 in 8.0 mi Calm Calm - N/A   Clear
8:35 AM 73.4 °F - 66.2 °F 78% 30.09 in 8.0 mi Calm Calm - N/A   Clear
8:55 AM 73.4 °F - 68.0 °F 83% 30.08 in 9.0 mi Calm Calm - N/A   Clear
9:15 AM 75.2 °F - 68.0 °F 78% 30.08 in 9.0 mi ESE 3.5 mph - N/A   Clear
9:55 AM 78.8 °F - 68.0 °F 69% 30.07 in 8.0 mi WSW 3.5 mph - N/A   Clear
10:15 AM 80.6 °F 83.2 °F 68.0 °F 65% 30.07 in 8.0 mi West 3.5 mph - N/A   Clear
10:35 AM 80.6 °F 83.2 °F 68.0 °F 65% 30.07 in 8.0 mi SW 5.8 mph - N/A   Clear
10:55 AM 80.6 °F 82.7 °F 66.2 °F 61% 30.07 in 8.0 mi SSW 3.5 mph - N/A   Clear
11:15 AM 82.4 °F 84.6 °F 66.2 °F 58% 30.07 in 8.0 mi SSW 4.6 mph - N/A Rain Light Rain
11:55 AM 84.2 °F 86.6 °F 66.2 °F 55% 30.06 in 10.0 mi WSW 5.8 mph - 0.01 in Rain Light Rain
12:15 PM 86.0 °F 87.3 °F 64.4 °F 48% 30.06 in 9.0 mi Calm Calm - N/A Rain Light Rain
12:35 PM 84.2 °F 85.6 °F 64.4 °F 51% 30.05 in 9.0 mi West 9.2 mph - N/A Rain , Thunderstorm Light Rain
12:55 PM 82.4 °F 83.4 °F 62.6 °F 51% 30.05 in 9.0 mi SSW 20.7 mph 24.2 mph 0.01 in Rain Light Rain
1:15 PM 82.4 °F 82.5 °F 59.0 °F 45% 30.05 in 10.0 mi South 13.8 mph - N/A   Clear
1:35 PM 80.6 °F 82.3 °F 64.4 °F 58% 30.05 in 7.0 mi SE 6.9 mph - 0.01 in Rain Light Rain
1:55 PM 77.0 °F - 64.4 °F 65% 30.05 in 9.0 mi SSE 11.5 mph - 0.01 in   Unknown
2:15 PM 80.6 °F 82.7 °F 66.2 °F 61% 30.04 in 10.0 mi SSE 12.7 mph - N/A Rain Light Rain
2:35 PM 78.8 °F - 66.2 °F 65% 30.06 in 9.0 mi SSW 17.3 mph 27.6 mph N/A Thunderstorm Unknown
2:55 PM 75.2 °F - 68.0 °F 78% 30.05 in 4.0 mi SW 15.0 mph 23.0 mph N/A Rain Light Rain
3:15 PM 75.2 °F - 66.2 °F 73% 30.05 in 5.0 mi Calm Calm - N/A Rain Light Rain
3:35 PM 78.8 °F - 66.2 °F 65% 30.04 in 8.0 mi NW 4.6 mph - N/A Rain Light Rain
3:55 PM 77.0 °F - 68.0 °F 74% 30.04 in 8.0 mi NNW 8.1 mph - N/A Thunderstorm Clear
4:15 PM 80.6 °F 83.2 °F 68.0 °F 65% 30.02 in 9.0 mi North 3.5 mph - N/A Thunderstorm Clear
4:35 PM 82.4 °F 85.4 °F 68.0 °F 62% 30.03 in 9.0 mi East 3.5 mph - N/A Thunderstorm Clear
4:55 PM 80.6 °F 83.2 °F 68.0 °F 65% 30.04 in 9.0 mi SSE 11.5 mph 19.6 mph N/A Rain Light Rain
5:15 PM 77.0 °F - 68.0 °F 74% 30.04 in 10.0 mi SE 17.3 mph 24.2 mph N/A   Clear
5:35 PM 77.0 °F - 68.0 °F 74% 30.03 in 10.0 mi ESE 16.1 mph 19.6 mph N/A   Clear
5:55 PM 75.2 °F - 68.0 °F 78% 30.03 in 10.0 mi SE 16.1 mph - N/A   Clear
6:15 PM 77.0 °F - 68.0 °F 74% 30.02 in 10.0 mi SSE 12.7 mph - N/A   Clear
6:35 PM 77.0 °F - 66.2 °F 69% 30.02 in 10.0 mi SSE 8.1 mph - N/A   Clear
6:55 PM 77.0 °F - 66.2 °F 69% 30.02 in 10.0 mi South 9.2 mph - N/A   Clear
7:15 PM 77.0 °F - 66.2 °F 69% 30.02 in 10.0 mi SSE 6.9 mph - N/A   Clear
7:35 PM 75.2 °F - 66.2 °F 73% 30.02 in 10.0 mi SSE 4.6 mph - N/A   Clear
7:55 PM 75.2 °F - 66.2 °F 73% 30.02 in 10.0 mi ESE 5.8 mph - N/A   Clear
8:15 PM 73.4 °F - 66.2 °F 78% 30.02 in 10.0 mi ESE 8.1 mph - N/A   Clear
8:35 PM 73.4 °F - 66.2 °F 78% 30.02 in 10.0 mi SE 5.8 mph - N/A   Clear
8:55 PM 71.6 °F - 66.2 °F 83% 30.03 in 10.0 mi SE 4.6 mph - N/A   Clear
9:15 PM 73.4 °F - 66.2 °F 78% 30.03 in 10.0 mi SE 4.6 mph - N/A   Clear
9:35 PM 71.6 °F - 66.2 °F 83% 30.04 in 10.0 mi Calm Calm - N/A   Clear
10:15 PM 71.6 °F - 66.2 °F 83% 30.05 in 10.0 mi SE 3.5 mph - N/A   Clear
10:35 PM 71.6 °F - 64.4 °F 78% 30.05 in 10.0 mi Calm Calm - N/A   Clear
10:55 PM 71.6 °F - 64.4 °F 78% 30.05 in 10.0 mi Calm Calm - N/A   Clear
11:15 PM 69.8 °F - 64.4 °F 83% 30.05 in 10.0 mi Calm Calm - N/A   Clear
11:35 PM 69.8 °F - 66.2 °F 88% 30.05 in 10.0 mi SSE 3.5 mph - N/A   Clear
11:55 PM 71.6 °F - 66.2 °F 83% 30.05 in 10.0 mi SE 4.6 mph - N/A   Clear